Time,TemperatureF,DewpointF,PressureIn,WindDirection,WindDirectionDegrees,WindSpeedMPH,WindSpeedGustMPH,Humidity,HourlyPrecipIn,Conditions,Clouds,dailyrainin,SoftwareType,DateUTC
2013-12-22 00:22:00,31.0,30.0,-100.00,North,10,6.0,11.0,96,-99.99,,,-99.99,,2013-12-22 06:22:00,
2013-12-22 00:52:00,31.0,31.0,-100.00,North,355,1.0,10.0,97,-99.99,,,-99.99,,2013-12-22 06:52:00,
2013-12-22 01:22:00,31.0,31.0,-100.00,North,5,6.0,8.0,98,-99.99,,,-99.99,,2013-12-22 07:22:00,
2013-12-22 01:52:00,31.0,31.0,-100.00,NNE,15,3.0,9.0,97,-99.99,,,-99.99,,2013-12-22 07:52:00,
2013-12-22 02:22:00,32.0,31.0,-100.00,North,350,2.0,8.0,97,-99.99,,,-99.99,,2013-12-22 08:22:00,
2013-12-22 02:52:00,32.0,31.0,-100.00,North,5,4.0,6.0,97,-99.99,,,-99.99,,2013-12-22 08:52:00,
2013-12-22 03:22:00,31.0,31.0,-100.00,NNE,20,1.0,3.0,97,-99.99,,,-99.99,,2013-12-22 09:22:00,
2013-12-22 03:54:00,31.0,31.0,-100.00,NNE,30,2.0,4.0,98,-99.99,,,-99.99,,2013-12-22 09:54:00,
2013-12-22 04:23:00,31.0,31.0,-100.00,North,0,2.0,4.0,98,-99.99,,,-99.99,,2013-12-22 10:23:00,
2013-12-22 04:54:00,31.0,30.0,-100.00,WNW,290,4.0,6.0,98,-99.99,,,-99.99,,2013-12-22 10:54:00,
2013-12-22 05:22:00,30.0,30.0,-100.00,WNW,300,6.0,9.0,98,-99.99,,,-99.99,,2013-12-22 11:22:00,
2013-12-22 05:52:00,30.0,29.0,-100.00,NNW,340,3.0,7.0,98,-99.99,,,-99.99,,2013-12-22 11:52:00,
2013-12-22 06:22:00,29.0,29.0,-100.00,NW,320,4.0,8.0,97,-99.99,,,-99.99,,2013-12-22 12:22:00,
2013-12-22 06:52:00,29.0,28.0,-100.00,NW,305,4.0,6.0,96,-99.99,,,-99.99,,2013-12-22 12:52:00,
2013-12-22 07:22:00,29.0,28.0,-100.00,NW,315,4.0,7.0,96,-99.99,,,-99.99,,2013-12-22 13:22:00,
2013-12-22 07:52:00,29.0,28.0,-100.00,North,350,2.0,6.0,95,-99.99,,,-99.99,,2013-12-22 13:52:00,
2013-12-22 08:22:00,29.0,28.0,-100.00,NW,315,4.0,5.0,96,-99.99,,,-99.99,,2013-12-22 14:22:00,
2013-12-22 08:52:00,29.0,28.0,-100.00,NW,325,4.0,8.0,94,-99.99,,,-99.99,,2013-12-22 14:52:00,
2013-12-22 09:22:00,29.0,28.0,-100.00,NNW,335,1.0,6.0,94,-99.99,,,-99.99,,2013-12-22 15:22:00,
2013-12-22 09:54:00,29.0,27.0,-100.00,NNW,335,4.0,11.0,91,-99.99,,,-99.99,,2013-12-22 15:54:00,
2013-12-22 10:23:00,29.0,27.0,-100.00,NW,320,2.0,6.0,92,-99.99,,,-99.99,,2013-12-22 16:23:00,
2013-12-22 10:52:00,29.0,27.0,-100.00,NW,325,4.0,6.0,91,-99.99,,,-99.99,,2013-12-22 16:52:00,
2013-12-22 11:22:00,29.0,27.0,-100.00,NW,320,3.0,6.0,91,-99.99,,,-99.99,,2013-12-22 17:22:00,
2013-12-22 11:53:00,29.0,26.0,-100.00,NW,310,8.0,13.0,91,-99.99,,,-99.99,,2013-12-22 17:53:00,
2013-12-22 12:22:00,28.0,26.0,-100.00,NW,305,7.0,11.0,91,-99.99,,,-99.99,,2013-12-22 18:22:00,
2013-12-22 12:52:00,28.0,26.0,-100.00,NW,320,9.0,14.0,90,-99.99,,,-99.99,,2013-12-22 18:52:00,
2013-12-22 13:22:00,28.0,26.0,-100.00,NW,325,8.0,14.0,89,-99.99,,,-99.99,,2013-12-22 19:22:00,
2013-12-22 13:52:00,28.0,26.0,-100.00,NW,320,9.0,13.0,90,-99.99,,,-99.99,,2013-12-22 19:52:00,
2013-12-22 14:22:00,29.0,26.0,-100.00,NNW,330,5.0,10.0,89,-99.99,,,-99.99,,2013-12-22 20:22:00,
2013-12-22 14:53:00,28.0,25.0,-100.00,NW,320,6.0,12.0,90,-99.99,,,-99.99,,2013-12-22 20:53:00,
2013-12-22 15:22:00,27.0,24.0,-100.00,NW,310,9.0,14.0,88,-99.99,,,-99.99,,2013-12-22 21:22:00,
2013-12-22 15:53:00,27.0,24.0,-100.00,NW,315,8.0,16.0,87,-99.99,,,-99.99,,2013-12-22 21:53:00,
2013-12-22 16:23:00,26.0,23.0,-100.00,WNW,295,9.0,16.0,87,-99.99,,,-99.99,,2013-12-22 22:23:00,
2013-12-22 16:53:00,25.0,22.0,-100.00,NW,315,10.0,15.0,86,-99.99,,,-99.99,,2013-12-22 22:53:00,
2013-12-22 17:22:00,25.0,22.0,-100.00,NW,310,7.0,13.0,88,-99.99,,,-99.99,,2013-12-22 23:22:00,
2013-12-22 17:53:00,24.0,20.0,-100.00,WNW,300,7.0,14.0,85,-99.99,,,-99.99,,2013-12-22 23:53:00,
2013-12-22 18:22:00,24.0,20.0,-100.00,NW,310,6.0,13.0,87,-99.99,,,-99.99,,2013-12-23 00:22:00,
2013-12-22 18:52:00,22.0,19.0,-100.00,NW,310,9.0,16.0,86,-99.99,,,-99.99,,2013-12-23 00:52:00,
2013-12-22 19:22:00,21.0,17.0,-100.00,NW,315,9.0,14.0,84,-99.99,,,-99.99,,2013-12-23 01:22:00,
2013-12-22 19:53:00,21.0,17.0,-100.00,NW,305,9.0,16.0,84,-99.99,,,-99.99,,2013-12-23 01:53:00,
2013-12-22 20:21:00,20.0,16.0,-100.00,WNW,300,7.0,15.0,83,-99.99,,,-99.99,,2013-12-23 02:21:00,
2013-12-22 20:52:00,18.0,14.0,-100.00,NW,310,14.0,23.0,82,-99.99,,,-99.99,,2013-12-23 02:52:00,
2013-12-22 21:22:00,17.0,13.0,-100.00,WNW,290,9.0,21.0,83,-99.99,,,-99.99,,2013-12-23 03:22:00,
2013-12-22 21:54:00,18.0,14.0,-100.00,NW,310,8.0,20.0,83,-99.99,,,-99.99,,2013-12-23 03:54:00,
2013-12-22 22:23:00,18.0,14.0,-100.00,NW,320,8.0,14.0,82,-99.99,,,-99.99,,2013-12-23 04:23:00,
2013-12-22 22:52:00,18.0,14.0,-100.00,WNW,290,9.0,14.0,82,-99.99,,,-99.99,,2013-12-23 04:52:00,
2013-12-22 23:23:00,18.0,14.0,-100.00,WNW,290,7.0,14.0,83,-99.99,,,-99.99,,2013-12-23 05:23:00,
2013-12-22 23:53:00,18.0,14.0,-100.00,WNW,300,7.0,15.0,83,-99.99,,,-99.99,,2013-12-23 05:53:00,